M I D A S
Marine Information and Data Acquisition System
Tripno 524 of the Zeeleeuw from 2003-06-25 06:54:58 to 2003-06-25 11:03:42
Back to CruiseResearch ActivitiesStationsMapUnderway DataData graphs

EquipmentUnitsComments
TimeDGPSUTC
LatitudeDGPSDM.mWGS84
LongitudeDGPSDM.mWGS84
SpeedMeteo Stationm/sRelative wind speed
DirectionMeteo StationdegRelative wind direction
TemperatureMeteo Stationdeg CelciusAir temperature
PressureMeteo StationPaAtmospheric pressure
HumidityMeteo Station%Relative humidity
Missing or incorrect values are displayed as -999
Metereological data collected by the RV Zeeleeuw from 2003-06-25 06:54:58 to 2003-06-25 11:03:42
Time Latitude Longitude Speed Direction Temperature Pressure Humidity
2003-06-25 06:56 51°13.62 2°56.05 1.8 330 16.4 102220 72
2003-06-25 06:57 51°13.64 2°55.97 1.2 318 16.5 102210 72
2003-06-25 06:58 51°13.66 2°55.86 2 299 16.5 102210 72
2003-06-25 06:59 51°13.68 2°55.78 2.5 356 16.6 102210 72
2003-06-25 07:00 51°13.68 2°55.75 4.2 33 16.5 102210 71
2003-06-25 07:01 51°13.71 2°55.76 3.6 86 16.3 102210 72
2003-06-25 07:02 51°13.77 2°55.7 2.6 35 16.2 102210 74
2003-06-25 07:03 51°13.84 2°55.62 4.6 51 16 102210 73
2003-06-25 07:04 51°13.91 2°55.57 4.6 80 15.9 102210 74
2003-06-25 07:05 51°14 2°55.51 3.9 61 15.8 102210 74
2003-06-25 07:06 51°14.09 2°55.44 4 74 15.7 102200 74
2003-06-25 07:07 51°14.2 2°55.34 3.9 61 15.6 102200 75
2003-06-25 07:08 51°14.3 2°55.19 5.4 56 15.7 102200 76
2003-06-25 07:09 51°14.41 2°54.99 5.7 68 15.6 102200 76
2003-06-25 07:10 51°14.57 2°54.82 6.2 60 15.5 102200 76
2003-06-25 07:11 51°14.74 2°54.64 7.3 63 15.4 102200 77
2003-06-25 07:12 51°14.92 2°54.46 6.4 56 15.3 102200 76
2003-06-25 07:13 51°15.1 2°54.27 7.7 54 15.4 102210 77
2003-06-25 07:14 51°15.29 2°54.07 7.4 53 15.4 102210 77
2003-06-25 07:15 51°15.48 2°53.87 6.6 63 15.3 102200 77
2003-06-25 07:16 51°15.68 2°53.67 7.5 45 15.4 102210 77
2003-06-25 07:17 51°15.88 2°53.51 7.6 50 15.4 102210 77
2003-06-25 07:18 51°16.1 2°53.35 7.8 38 15.4 102200 77
2003-06-25 07:19 51°16.31 2°53.19 7.9 52 15.4 102200 78
2003-06-25 07:20 51°16.52 2°53 7.6 46 15.4 102200 78
2003-06-25 07:21 51°16.72 2°52.82 6.6 52 15.3 102210 78
2003-06-25 07:22 51°16.91 2°52.65 7.6 52 15.4 102210 78
2003-06-25 07:23 51°17.12 2°52.47 6.9 55 15.4 102210 78
2003-06-25 07:24 51°17.32 2°52.29 8.4 60 15.4 102210 78
2003-06-25 07:25 51°17.48 2°52.07 4.5 56 15.4 102210 78
2003-06-25 07:26 51°17.62 2°51.77 3.9 50 15.4 102220 78
2003-06-25 07:27 51°17.74 2°51.47 5.8 73 15.5 102220 78
2003-06-25 07:28 51°17.88 2°51.18 4.7 58 15.5 102220 78
2003-06-25 07:29 51°18.01 2°50.88 4.1 53 15.5 102210 78
2003-06-25 07:30 51°18.14 2°50.59 5.1 54 15.5 102220 77
2003-06-25 07:31 51°18.27 2°50.29 5.4 53 15.6 102210 78
2003-06-25 07:32 51°18.41 2°50 6.4 65 15.6 102220 78
2003-06-25 07:33 51°18.54 2°49.7 5.4 61 15.6 102210 77
2003-06-25 07:34 51°18.67 2°49.42 4.2 53 15.5 102220 77
2003-06-25 07:35 51°18.81 2°49.12 5.8 63 15.6 102220 77
2003-06-25 07:36 51°18.94 2°48.84 5.7 52 15.6 102220 78
2003-06-25 07:37 51°19.08 2°48.54 5.4 66 15.6 102200 78
2003-06-25 07:38 51°19.21 2°48.24 5.9 55 15.6 102210 77
2003-06-25 07:39 51°19.35 2°47.95 5.3 61 15.6 102210 78
2003-06-25 07:40 51°19.49 2°47.63 7 63 15.6 102200 78
2003-06-25 07:41 51°19.62 2°47.33 5.2 58 15.6 102200 78
2003-06-25 07:42 51°19.76 2°47.03 4.7 65 15.6 102200 77
2003-06-25 07:43 51°19.9 2°46.72 4.7 51 15.5 102210 76
2003-06-25 07:44 51°20.04 2°46.42 6.1 57 15.7 102210 78
2003-06-25 07:45 51°20.09 2°46.08 3.5 68 15.6 102210 77
2003-06-25 07:46 51°20.13 2°45.72 3.1 77 15.7 102220 76
2003-06-25 07:47 51°20.17 2°45.38 2.9 54 15.7 102210 75
2003-06-25 07:48 51°20.22 2°45.01 3.3 56 15.7 102220 76
2003-06-25 07:49 51°20.26 2°44.65 3.4 73 15.8 102210 76
2003-06-25 07:50 51°20.31 2°44.29 3.5 59 15.7 102210 75
2003-06-25 07:51 51°20.36 2°43.94 3.6 68 15.7 102210 75
2003-06-25 07:52 51°20.41 2°43.56 2.6 65 15.7 102210 75
2003-06-25 07:53 51°20.45 2°43.2 3 54 15.8 102210 75
2003-06-25 07:54 51°20.48 2°42.83 2.8 36 15.8 102210 75
2003-06-25 07:55 51°20.49 2°42.47 2.6 35 15.7 102200 75
2003-06-25 07:56 51°20.5 2°42.1 1.7 36 15.8 102200 75
2003-06-25 07:57 51°20.5 2°41.74 2.1 56 15.9 102200 75
2003-06-25 07:58 51°20.51 2°41.39 2.9 63 16 102190 76
2003-06-25 07:59 51°20.52 2°41.02 2.7 57 16 102190 76
2003-06-25 08:00 51°20.53 2°40.66 3.1 50 16 102200 76
2003-06-25 08:01 51°20.54 2°40.3 3.2 68 15.9 102200 76
2003-06-25 08:02 51°20.52 2°39.94 2.4 350 15.8 102190 77
2003-06-25 08:03 51°20.38 2°39.67 2.3 331 15.9 102200 77
2003-06-25 08:04 51°20.24 2°39.39 2.1 345 16 102200 77
2003-06-25 08:05 51°20.1 2°39.11 2.9 317 16.1 102200 77
2003-06-25 08:06 51°19.96 2°38.82 3.8 42 16.3 102200 77
2003-06-25 08:07 51°19.82 2°38.54 4.8 302 16.3 102200 75
2003-06-25 08:08 51°19.68 2°38.26 3.1 305 16.3 102200 74
2003-06-25 08:09 51°19.54 2°37.98 3.9 290 16.4 102200 74
2003-06-25 08:10 51°19.4 2°37.71 3.1 306 16.4 102200 73
2003-06-25 08:11 51°19.26 2°37.44 1.8 303 16.5 102200 73
2003-06-25 08:12 51°19.12 2°37.17 3 301 16.6 102200 72
2003-06-25 08:13 51°18.98 2°36.91 3.2 287 16.7 102190 72
2003-06-25 08:14 51°18.84 2°36.63 2.8 276 16.7 102190 71
2003-06-25 08:15 51°18.7 2°36.38 2.1 318 16.8 102190 72
2003-06-25 08:16 51°18.5 2°36.25 9.1 42 16.8 102190 72
2003-06-25 08:17 51°18.32 2°36.47 11.5 335 16.7 102160 72
2003-06-25 08:18 51°18.16 2°36.76 12.3 331 16.7 102160 72
2003-06-25 08:19 51°17.99 2°37.02 12.5 323 16.6 102160 73
2003-06-25 08:20 51°17.78 2°37.02 3.8 299 16.5 102180 72
2003-06-25 08:21 51°17.59 2°36.83 4.5 293 16.6 102190 73
2003-06-25 08:22 51°17.42 2°36.64 3.9 291 16.6 102180 73
2003-06-25 08:23 51°17.24 2°36.43 4 288 16.6 102190 72
2003-06-25 08:24 51°17.05 2°36.21 3.2 279 16.7 102180 71
2003-06-25 08:25 51°16.87 2°36 5.8 292 16.8 102180 72
2003-06-25 08:26 51°16.69 2°35.79 5.6 288 16.9 102180 72
2003-06-25 08:27 51°16.52 2°35.58 3.8 290 16.9 102180 72
2003-06-25 08:28 51°16.34 2°35.37 3.6 306 16.9 102170 71
2003-06-25 08:29 51°16.17 2°35.15 3 315 16.9 102170 72
2003-06-25 08:30 51°16.01 2°34.91 2.3 42 17 102170 72
2003-06-25 08:31 51°15.92 2°34.61 3.5 77 17.1 102180 72
2003-06-25 08:32 51°16 2°34.28 5.7 67 16.8 102170 72
2003-06-25 08:33 51°16.11 2°33.95 4.5 79 16.4 102190 72
2003-06-25 08:34 51°16.21 2°33.65 5.3 71 16.2 102190 73
2003-06-25 08:35 51°16.32 2°33.35 5.1 69 16.1 102200 73
2003-06-25 08:36 51°16.44 2°33.06 5.1 75 16 102200 73
2003-06-25 08:37 51°16.43 2°32.75 2.6 301 16 102190 73
2003-06-25 08:38 51°16.28 2°32.51 2.9 299 16.1 102190 74
2003-06-25 08:39 51°16.13 2°32.27 3.8 309 16.2 102200 73
2003-06-25 08:40 51°15.98 2°32.02 4.3 320 16.4 102200 73
2003-06-25 08:41 51°15.83 2°31.78 4.3 298 16.4 102200 71
2003-06-25 08:42 51°15.68 2°31.53 3.5 289 16.6 102200 71
2003-06-25 08:43 51°15.53 2°31.29 2.9 311 16.7 102200 71
2003-06-25 08:44 51°15.38 2°31.04 2 319 16.8 102200 71
2003-06-25 08:45 51°15.23 2°30.79 3.1 312 16.9 102200 70
2003-06-25 08:46 51°15.08 2°30.55 2.8 325 17 102200 70
2003-06-25 08:47 51°14.93 2°30.31 2.9 332 17.1 102200 70
2003-06-25 08:48 51°14.78 2°30.06 2.5 40 17.1 102200 70
2003-06-25 08:49 51°14.64 2°29.81 2.5 318 17.1 102200 70
2003-06-25 08:50 51°14.49 2°29.56 3 312 17.1 102200 70
2003-06-25 08:51 51°14.34 2°29.32 2.4 291 17.2 102200 71
2003-06-25 08:52 51°14.19 2°29.07 1.7 295 17.1 102200 70
2003-06-25 08:53 51°14.04 2°28.82 3.9 302 17.2 102200 71
2003-06-25 08:54 51°13.89 2°28.57 3.2 296 17.3 102190 71
2003-06-25 08:55 51°13.74 2°28.32 2.7 298 17.2 102200 70
2003-06-25 08:56 51°13.6 2°28.07 2.1 228 17.3 102200 70
2003-06-25 08:57 51°13.45 2°27.82 3.1 321 17.3 102200 71
2003-06-25 08:58 51°13.3 2°27.57 2.4 303 17.3 102200 70
2003-06-25 08:59 51°13.16 2°27.33 2.1 284 17.3 102200 70
2003-06-25 09:00 51°13.01 2°27.08 2.2 299 17.4 102200 70
2003-06-25 09:01 51°12.87 2°26.84 1.8 284 17.4 102200 70
2003-06-25 09:02 51°12.69 2°26.68 4.4 303 17.4 102190 70
2003-06-25 09:03 51°12.49 2°26.57 4.9 291 17.4 102190 70
2003-06-25 09:04 51°12.28 2°26.47 6.9 290 17.3 102190 70
2003-06-25 09:05 51°12.09 2°26.35 5.9 293 17.2 102190 70
2003-06-25 09:06 51°11.89 2°26.23 5.1 292 17.2 102190 70
2003-06-25 09:07 51°11.69 2°26.12 5.3 284 17.2 102180 70
2003-06-25 09:08 51°11.51 2°25.98 7.8 310 17.2 102190 71
2003-06-25 09:09 51°11.32 2°26.15 13.7 326 17.1 102150 71
2003-06-25 09:10 51°11.21 2°26.48 15.6 353 17 102130 70
2003-06-25 09:11 51°11.22 2°26.87 14.4 352 16.9 102140 70
2003-06-25 09:12 51°11.23 2°27.26 14.5 350 16.9 102140 72
2003-06-25 09:13 51°11.24 2°27.65 14.8 350 16.8 102140 72
2003-06-25 09:14 51°11.25 2°28.04 15.6 351 16.7 102140 71
2003-06-25 09:15 51°11.27 2°28.43 15.3 359 16.8 102140 72
2003-06-25 09:16 51°11.38 2°28.77 16.8 11 16.7 102130 71
2003-06-25 09:17 51°11.53 2°29.09 16.2 10 16.7 102130 71
2003-06-25 09:18 51°11.67 2°29.42 16.2 13 16.6 102150 71
2003-06-25 09:19 51°11.81 2°29.75 15.5 10 16.6 102130 71
2003-06-25 09:20 51°11.95 2°30.07 16 11 16.7 102150 73
2003-06-25 09:21 51°12.11 2°30.37 15.9 9 16.6 102140 73
2003-06-25 09:22 51°12.26 2°30.68 15 12 16.7 102130 73
2003-06-25 09:23 51°12.41 2°30.98 14.4 10 16.7 102130 73
2003-06-25 09:24 51°12.56 2°31.29 16.1 10 16.7 102150 74
2003-06-25 09:25 51°12.69 2°31.63 15.8 3 16.6 102150 72
2003-06-25 09:26 51°12.8 2°31.98 15 355 16.6 102150 72
2003-06-25 09:27 51°12.88 2°32.35 15.7 356 16.7 102140 73
2003-06-25 09:28 51°12.96 2°32.72 16.9 360 16.7 102150 72
2003-06-25 09:29 51°13.05 2°33.09 15.1 359 16.7 102150 72
2003-06-25 09:30 51°13.14 2°33.45 15.4   16.7 102160 72
2003-06-25 09:31 51°13.22 2°33.81 15.9 1 16.7 102150 71
2003-06-25 09:32 51°13.3 2°34.17 15.4 359 16.7 102140 71
2003-06-25 09:33 51°13.39 2°34.54 16.4 359 16.7 102140 70
2003-06-25 09:34 51°13.47 2°34.9 15.2 359 16.8 102140 70
2003-06-25 09:35 51°13.55 2°35.26 15.9 356 16.8 102140 70
2003-06-25 09:36 51°13.64 2°35.62 15.6 355 16.8 102140 70
2003-06-25 09:37 51°13.72 2°35.99 15.7 356 16.8 102130 71
2003-06-25 09:38 51°13.8 2°36.36 16.6 357 16.8 102140 71
2003-06-25 09:39 51°13.89 2°36.72 15.4 356 16.9 102140 71
2003-06-25 09:40 51°13.97 2°37.09 13.7 355 17 102140 72
2003-06-25 09:41 51°14.05 2°37.46 15 360 16.9 102140 71
2003-06-25 09:42 51°14.14 2°37.83 15.9 353 16.9 102140 71
2003-06-25 09:43 51°14.18 2°38.21 15.7 343 17 102140 71
2003-06-25 09:44 51°14.13 2°38.58 14.2 326 17 102130 71
2003-06-25 09:45 51°13.99 2°38.86 10.6 306 17.1 102130 71
2003-06-25 09:46 51°13.78 2°38.84 2.8 256 17 102160 72
2003-06-25 09:47 51°13.59 2°38.68 1.8 247 17 102160 72
2003-06-25 09:48 51°13.39 2°38.51 4.7 234 17 102160 72
2003-06-25 09:49 51°13.2 2°38.35 4.1 260 17 102150 72
2003-06-25 09:50 51°13 2°38.19 5.6 264 17.1 102140 72
2003-06-25 09:51 51°12.81 2°38.01 2.5 254 17 102140 72
2003-06-25 09:52 51°12.63 2°37.83 3.6 247 17 102140 71
2003-06-25 09:53 51°12.44 2°37.64 2.1 251 17 102140 71
2003-06-25 09:54 51°12.25 2°37.45 3.5 238 17 102140 71
2003-06-25 09:55 51°12.07 2°37.27 3.6 261 17 102140 71
2003-06-25 09:56 51°11.88 2°37.09 2.3 226 17.1 102140 71
2003-06-25 09:57 51°11.69 2°36.91 2.2 257 17.1 102140 71
2003-06-25 09:58 51°11.51 2°36.72 3.4 247 17.1 102140 70
2003-06-25 09:59 51°11.32 2°36.54 3 254 17.1 102140 71
2003-06-25 10:00 51°11.13 2°36.36 3.5 234 17.2 102140 71
2003-06-25 10:01 51°10.95 2°36.17 3.2 239 17.2 102130 71
2003-06-25 10:02 51°10.76 2°36 4.1 251 17.2 102120 71
2003-06-25 10:03 51°10.55 2°35.89 7.2 270 17.2 102110 71
2003-06-25 10:04 51°10.34 2°35.79 5.5 246 17.1 102110 71
2003-06-25 10:05 51°10.13 2°35.72 6.8 272 17.1 102110 71
2003-06-25 10:06 51°9.91 2°35.66 10.2 294 17.2 102120 72
2003-06-25 10:07 51°9.72 2°35.82 13.6 314 17.2 102090 72
2003-06-25 10:08 51°9.65 2°36.17 17.9 341 17.2 102070 70
2003-06-25 10:09 51°9.72 2°36.53 17.3 345 17.3 102070 70
2003-06-25 10:10 51°9.79 2°36.89 17 348 17.3 102060 70
2003-06-25 10:11 51°9.85 2°37.25 19.2 350 17.4 102080 69
2003-06-25 10:12 51°9.92 2°37.61 17.1 348 17.4 102060 68
2003-06-25 10:13 51°9.99 2°37.97 17.5 347 17.4 102080 70
2003-06-25 10:14 51°10.06 2°38.34 15.8 354 17.5 102070 69
2003-06-25 10:15 51°10.12 2°38.7 17.7 347 17.4 102060 68
2003-06-25 10:16 51°10.19 2°39.06 18.4 349 17.4 102070 68
2003-06-25 10:17 51°10.26 2°39.43 18.4 350 17.4 102060 66
2003-06-25 10:18 51°10.32 2°39.79 18.1 349 17.5 102070 68
2003-06-25 10:19 51°10.39 2°40.16 18.5 349 17.5 102080 67
2003-06-25 10:20 51°10.45 2°40.52 18.1 347 17.5 102070 66
2003-06-25 10:21 51°10.51 2°40.88 17.7 350 17.6 102070 68
2003-06-25 10:22 51°10.58 2°41.24 18.4 348 17.6 102070 68
2003-06-25 10:23 51°10.64 2°41.6 17.5 352 17.6 102080 67
2003-06-25 10:24 51°10.72 2°41.96 17.8 348 17.6 102070 68
2003-06-25 10:25 51°10.79 2°42.32 17.1 347 17.6 102070 68
2003-06-25 10:26 51°10.86 2°42.67 17.8 344 17.6 102070 68
2003-06-25 10:27 51°10.93 2°43.03 17.8 353 17.7 102060 68
2003-06-25 10:28 51°11 2°43.38 16.4 345 17.6 102070 67
2003-06-25 10:29 51°11.07 2°43.74 17.2 352 17.7 102070 67
2003-06-25 10:30 51°11.14 2°44.09 18.3 349 17.7 102080 66
2003-06-25 10:31 51°11.22 2°44.44 17.3 347 17.7 102070 66
2003-06-25 10:32 51°11.3 2°44.79 18.3 351 17.7 102080 67
2003-06-25 10:33 51°11.38 2°45.14 17.2 351 17.7 102080 66
2003-06-25 10:34 51°11.47 2°45.48 17.9 348 17.7 102090 67
2003-06-25 10:35 51°11.56 2°45.83 17.9 358 17.7 102090 67
2003-06-25 10:36 51°11.65 2°46.17 18.1 349 17.7 102090 67
2003-06-25 10:37 51°11.74 2°46.51 17.1 350 17.7 102080 66
2003-06-25 10:38 51°11.83 2°46.86 17.5 349 17.7 102090 66
2003-06-25 10:39 51°11.92 2°47.2 18.6 358 17.8 102090 67
2003-06-25 10:40 51°12.03 2°47.52 18.9 356 17.7 102090 65
2003-06-25 10:41 51°12.15 2°47.85 17.9 2 17.7 102090 65
2003-06-25 10:42 51°12.26 2°48.18 17.8 355 17.8 102110 67
2003-06-25 10:43 51°12.37 2°48.5 18.6 358 17.7 102110 64
2003-06-25 10:44 51°12.48 2°48.83 17.2 357 17.7 102100 63
2003-06-25 10:45 51°12.59 2°49.16 18 352 17.7 102100 67
2003-06-25 10:46 51°12.71 2°49.48 17.5 353 17.7 102100 68
2003-06-25 10:47 51°12.83 2°49.82 16.9 356 17.6 102100 68
2003-06-25 10:48 51°12.94 2°50.13 17.7 356 17.5 102110 69
2003-06-25 10:49 51°13.06 2°50.45 16.2 353 17.6 102110 70
2003-06-25 10:50 51°13.18 2°50.77 16.6 352 17.6 102120 71
2003-06-25 10:51 51°13.29 2°51.11 16.5 355 17.6 102110 70
2003-06-25 10:52 51°13.4 2°51.43 17.6   17.5 102110 68
2003-06-25 10:53 51°13.51 2°51.75 18 353 17.5 102120 68
2003-06-25 10:54 51°13.62 2°52.08 17.7 353 17.6 102100 69
2003-06-25 10:55 51°13.73 2°52.41 18.1 356 17.6 102120 69
2003-06-25 10:56 51°13.84 2°52.73 17.1 353 17.6 102110 69
2003-06-25 10:57 51°13.96 2°53.05 16.5 355 17.6 102120 69
2003-06-25 10:58 51°14.07 2°53.39 17.3 358 17.6 102120 69
2003-06-25 10:59 51°14.19 2°53.69 18.2 360 17.7 102120 69
2003-06-25 11:00 51°14.32 2°53.99 17.5 356 17.5 102120 66
2003-06-25 11:01 51°14.4 2°54.33 16 334 17.6 102120 68
2003-06-25 11:02 51°14.4 2°54.69 15.4 335 17.6 102120 68
2003-06-25 11:03 51°14.36 2°54.97 12.5 319 17.6 102120 69